カタログに戻る

STARLINK-5331

運用中通信VLEO
NORAD 55280·PAYLOAD·🇺🇸 United States

打ち上げ Jan 19, 2023 から Vandenberg Space Force Base

Loading…

次のパス (今後24時間)

TLE

最新Source: CelesTrak SupGP

元期: Sep 15, 2026, 02:47 UTC

1 55280C 23010M   26258.11645833  .00445580  00000+0  37253-1 0  2584
2 55280  69.9997 286.9900 0003725 270.3691 185.5382 14.98196044    19

AllMySatでSTARLINK-5331をリアルタイム追跡

Download on the App Store